{"data":{"norad_id":60485,"intl_designator":"2024-149T","name":"TOMORROW-S2","alt_names":[],"object_type":"PAYLOAD","status":"ACTIVE","operator":null,"country":"US","launch_date":"2024-08-16","launch_site_code":"AFWTR","launch_vehicle":null,"mission":null,"orbit_class":"UNKNOWN","rcs_meters":null,"size_class":null,"mass_kg":null,"dimensions":null,"purposes":[],"wikipedia_slug":null,"has_3d_model":false,"image_url":null,"decayed_at":null,"tle_current":{"epoch":"2026-05-25T02:51:01.912032Z","epoch_age_seconds":64867,"freshness":"FRESH","line1":"1 60485U 24149T   26145.11877213  .00007046  00000+0  22798-3 0  9998","line2":"2 60485  97.3817 226.1372 0002897  30.3260 329.8148 15.32360973 98554","mean_motion":15.32360973,"eccentricity":0.0002897,"inclination_deg":97.3817,"raan_deg":226.1372,"arg_perigee_deg":30.326,"mean_anomaly_deg":329.8148,"bstar":0.00022798,"rev_number":9855,"period_min":93.972636041547,"perigee_km":466.78682831206,"apogee_km":470.75392644652,"semimajor_km":6846.9073773793,"source":"CELESTRAK","updated_at":"2026-05-25T13:38:02.113380Z"}}}